Flag for U.S.A. Weather past 2 weeks in Lansing, Michigan, U.S.A.

Now
69 °F

Sunny.


Feels Like: 69 °F
Forecast: 49 / 74 °F
Wind: 12 mph from Southwest

Location: Capital City Airport


UV Index: 0 (Low)

Visibility: 10 mi


Pressure: 29.93 "Hg

Humidity: 35%

Dew point: 40 °F

Location of LansingLocation

Historic Weather in Lansing

°F

Lansing temperature yesterday

Maximum temperature yesterday: 73 °F (at 4:53 PM)
Minimum temperature yesterday: 39 °F (at 5:53 AM)
Average temperature yesterday: 56 °F

Past Weeks' High & Low Weather Summary

 TemperatureHumidityPressure
High73 °F (Apr 20, 4:53 PM)93% (Apr 14, 10:01 PM)30.49 "Hg (Apr 14, 10:01 PM)
Low21 °F (Apr 16, 5:53 AM)18% (Apr 20, 4:53 PM)29.38 "Hg (Apr 14, 6:53 AM)
Average48 °F54%30.01 "Hg
* Reported Apr 6 9:53 AM — Apr 21 9:53 AM, Lansing, Weather by CustomWeather, © 2014

Note: Actual official high and low records may vary slightly from our data, if they occured in-between our weather recording intervals... More about our weather records

Advertising

Historic Weather Conditions — Data for Previous 24 hours

 ConditionsComfort  
Time TempWeatherWind HumidityBarometerVisibility
9:53 AM
Apr 21
64 °FOvercast.9 mph38%29.97 "Hg10 mi
8:53 AM60 °FOvercast.7 mph41%29.98 "Hg10 mi
7:53 AM58 °FOvercast.3 mph41%30.00 "Hg10 mi
6:53 AM57 °FOvercast.6 mph39%30.01 "Hg10 mi
5:53 AM55 °FOvercast.3 mph44%30.01 "Hg10 mi
4:53 AM53 °FPassing clouds.6 mph47%30.02 "Hg10 mi
3:53 AM54 °FPassing clouds.6 mph43%30.02 "Hg10 mi
2:53 AM55 °FPassing clouds.No wind40%30.04 "Hg10 mi
1:53 AM57 °FOvercast.5 mph37%30.06 "Hg10 mi
12:53 AM57 °FPassing clouds.7 mph39%30.07 "Hg10 mi
11:53 PM
Apr 20
58 °FClear.7 mph36%30.08 "Hg10 mi
10:53 PM61 °FClear.6 mph32%30.10 "Hg10 mi
9:53 PM60 °FClear.No wind39%30.11 "Hg10 mi
8:53 PM64 °FSunny.3 mph26%30.11 "Hg10 mi
7:53 PM68 °FSunny.8 mph23%30.11 "Hg10 mi
6:53 PM71 °FSunny.10 mph19%30.13 "Hg10 mi
5:53 PM72 °FSunny.13 mph19%30.13 "Hg10 mi
4:53 PM73 °FSunny.12 mph18%30.15 "Hg10 mi
3:53 PM72 °FSunny.12 mph19%30.17 "Hg10 mi
2:53 PM71 °FSunny.7 mph20%30.19 "Hg10 mi
1:53 PM69 °FSunny.10 mph21%30.21 "Hg10 mi
12:53 PM66 °FSunny.7 mph26%30.23 "Hg10 mi
11:53 AM62 °FSunny.9 mph32%30.26 "Hg10 mi
Weather by CustomWeather, © 2014

See weather overview